Time,TemperatureF,DewpointF,PressureIn,WindDirection,WindDirectionDegrees,WindSpeedMPH,WindSpeedGustMPH,Humidity,HourlyPrecipIn,Conditions,Clouds,dailyrainin,SoftwareType,DateUTC
2013-05-04 00:00:00,46.3,42.0,30.57,SW,222,0.0,0.0,86,0.00,,,0.00,weatherlink.com 1.10,2013-05-04 04:00:00,
2013-05-04 00:15:00,45.8,42.0,30.57,SW,222,0.0,0.0,87,0.00,,,0.00,weatherlink.com 1.10,2013-05-04 04:15:00,
2013-05-04 00:30:00,45.5,42.0,30.57,SW,222,0.0,0.0,88,0.00,,,0.00,weatherlink.com 1.10,2013-05-04 04:30:00,
2013-05-04 00:45:00,45.1,42.0,30.57,SW,222,0.0,0.0,89,0.00,,,0.00,weatherlink.com 1.10,2013-05-04 04:45:00,
2013-05-04 01:00:00,44.8,42.0,30.57,SW,222,0.0,1.0,90,0.00,,,0.00,weatherlink.com 1.10,2013-05-04 05:00:00,
2013-05-04 01:15:00,44.6,42.0,30.56,SW,222,0.0,0.0,91,0.00,,,0.00,weatherlink.com 1.10,2013-05-04 05:15:00,
2013-05-04 01:30:00,44.5,42.0,30.56,SW,222,0.0,0.0,91,0.00,,,0.00,weatherlink.com 1.10,2013-05-04 05:30:00,
2013-05-04 01:45:00,44.3,42.0,30.55,SW,222,0.0,0.0,91,0.00,,,0.00,weatherlink.com 1.10,2013-05-04 05:45:00,
2013-05-04 02:00:00,44.0,42.0,30.55,SW,222,0.0,0.0,91,0.00,,,0.00,weatherlink.com 1.10,2013-05-04 06:00:00,
2013-05-04 02:15:00,43.7,42.0,30.54,SW,222,0.0,0.0,92,0.00,,,0.00,weatherlink.com 1.10,2013-05-04 06:15:00,
2013-05-04 02:46:00,43.3,42.0,30.53,SW,222,0.0,0.0,93,0.00,,,0.00,weatherlink.com 1.10,2013-05-04 06:46:00,
2013-05-04 03:01:00,43.0,41.0,30.52,SW,222,0.0,0.0,93,0.00,,,0.00,weatherlink.com 1.10,2013-05-04 07:01:00,
2013-05-04 03:16:00,42.9,41.0,30.52,SW,222,0.0,0.0,94,0.00,,,0.00,weatherlink.com 1.10,2013-05-04 07:16:00,
2013-05-04 03:31:00,42.7,41.0,30.52,SW,222,0.0,0.0,94,0.00,,,0.00,weatherlink.com 1.10,2013-05-04 07:31:00,
2013-05-04 03:46:00,42.6,41.0,30.52,SW,222,0.0,0.0,95,0.00,,,0.00,weatherlink.com 1.10,2013-05-04 07:46:00,
2013-05-04 04:01:00,42.5,41.0,30.52,SW,222,0.0,0.0,95,0.00,,,0.00,weatherlink.com 1.10,2013-05-04 08:01:00,
2013-05-04 04:16:00,42.4,41.0,30.52,SW,222,0.0,0.0,95,0.00,,,0.00,weatherlink.com 1.10,2013-05-04 08:16:00,
2013-05-04 04:31:00,42.4,41.0,30.51,SW,222,0.0,0.0,95,0.00,,,0.00,weatherlink.com 1.10,2013-05-04 08:31:00,
2013-05-04 04:46:00,41.9,40.0,30.51,SW,222,0.0,0.0,94,0.00,,,0.00,weatherlink.com 1.10,2013-05-04 08:46:00,
2013-05-04 05:01:00,41.6,40.0,30.52,SW,222,0.0,0.0,95,0.00,,,0.00,weatherlink.com 1.10,2013-05-04 09:01:00,
2013-05-04 05:16:00,41.6,40.0,30.51,SW,222,0.0,0.0,95,0.00,,,0.00,weatherlink.com 1.10,2013-05-04 09:16:00,
2013-05-04 05:31:00,41.7,40.0,30.52,SW,222,0.0,0.0,95,0.00,,,0.00,weatherlink.com 1.10,2013-05-04 09:31:00,
2013-05-04 05:46:00,41.8,41.0,30.52,SW,222,0.0,0.0,95,0.00,,,0.00,weatherlink.com 1.10,2013-05-04 09:46:00,
2013-05-04 06:01:00,41.7,40.0,30.52,SW,222,0.0,0.0,94,0.00,,,0.00,weatherlink.com 1.10,2013-05-04 10:01:00,
2013-05-04 06:16:00,41.4,40.0,30.52,SW,222,0.0,0.0,95,0.00,,,0.00,weatherlink.com 1.10,2013-05-04 10:16:00,
2013-05-04 06:31:00,41.1,40.0,30.52,SW,222,0.0,0.0,95,0.00,,,0.00,weatherlink.com 1.10,2013-05-04 10:31:00,
2013-05-04 06:46:00,41.4,40.0,30.52,SW,222,0.0,0.0,96,0.00,,,0.00,weatherlink.com 1.10,2013-05-04 10:46:00,
2013-05-04 07:01:00,42.5,42.0,30.52,SW,222,0.0,0.0,97,0.00,,,0.00,weatherlink.com 1.10,2013-05-04 11:01:00,
2013-05-04 07:16:00,43.8,43.0,30.52,SW,222,0.0,0.0,97,0.00,,,0.00,weatherlink.com 1.10,2013-05-04 11:16:00,
2013-05-04 07:31:00,46.3,45.0,30.52,SW,222,0.0,2.0,96,0.00,,,0.00,weatherlink.com 1.10,2013-05-04 11:31:00,
2013-05-04 07:46:00,49.6,46.0,30.53,SW,223,1.0,3.0,87,0.00,,,0.00,weatherlink.com 1.10,2013-05-04 11:46:00,
2013-05-04 08:01:00,52.7,46.0,30.53,ESE,113,1.0,2.0,78,0.00,,,0.00,weatherlink.com 1.10,2013-05-04 12:01:00,
2013-05-04 08:16:00,55.5,46.0,30.53,ESE,114,1.0,3.0,71,0.00,,,0.00,weatherlink.com 1.10,2013-05-04 12:16:00,
2013-05-04 08:31:00,57.8,45.0,30.53,WNW,298,0.0,4.0,62,0.00,,,0.00,weatherlink.com 1.10,2013-05-04 12:31:00,
2013-05-04 08:46:00,59.8,45.0,30.52,WNW,287,1.0,3.0,58,0.00,,,0.00,weatherlink.com 1.10,2013-05-04 12:46:00,
2013-05-04 09:01:00,61.8,45.0,30.52,WNW,298,1.0,3.0,55,0.00,,,0.00,weatherlink.com 1.10,2013-05-04 13:01:00,
2013-05-04 09:16:00,63.6,44.0,30.52,West,273,1.0,4.0,50,0.00,,,0.00,weatherlink.com 1.10,2013-05-04 13:16:00,
2013-05-04 09:31:00,64.7,44.0,30.52,NNW,339,2.0,4.0,47,0.00,,,0.00,weatherlink.com 1.10,2013-05-04 13:31:00,
2013-05-04 09:46:00,64.6,44.0,30.51,North,355,3.0,4.0,48,0.00,,,0.00,weatherlink.com 1.10,2013-05-04 13:46:00,
2013-05-04 10:01:00,64.8,44.0,30.51,NNW,348,0.0,5.0,48,0.00,,,0.00,weatherlink.com 1.10,2013-05-04 14:01:00,
2013-05-04 10:16:00,65.5,44.0,30.51,NW,315,1.0,6.0,46,0.00,,,0.00,weatherlink.com 1.10,2013-05-04 14:16:00,
2013-05-04 10:31:00,66.9,45.0,30.50,South,188,2.0,4.0,45,0.00,,,0.00,weatherlink.com 1.10,2013-05-04 14:31:00,
2013-05-04 10:46:00,68.6,44.0,30.50,NNW,332,1.0,5.0,41,0.00,,,0.00,weatherlink.com 1.10,2013-05-04 14:46:00,
2013-05-04 11:02:00,69.9,44.0,30.50,North,360,0.0,5.0,40,0.00,,,0.00,weatherlink.com 1.10,2013-05-04 15:02:00,
2013-05-04 11:16:00,70.4,43.0,30.49,WNW,296,0.0,6.0,38,0.00,,,0.00,weatherlink.com 1.10,2013-05-04 15:16:00,
2013-05-04 11:31:00,70.4,44.0,30.48,West,277,4.0,7.0,39,0.00,,,0.00,weatherlink.com 1.10,2013-05-04 15:31:00,
2013-05-04 11:46:00,71.9,44.0,30.48,WNW,292,2.0,5.0,37,0.00,,,0.00,weatherlink.com 1.10,2013-05-04 15:46:00,
2013-05-04 12:01:00,72.5,43.0,30.47,NNE,32,1.0,7.0,35,0.00,,,0.00,weatherlink.com 1.10,2013-05-04 16:01:00,
2013-05-04 12:16:00,72.8,44.0,30.47,North,355,2.0,6.0,35,0.00,,,0.00,weatherlink.com 1.10,2013-05-04 16:16:00,
2013-05-04 12:31:00,72.1,42.0,30.46,SSE,148,4.0,10.0,34,0.00,,,0.00,weatherlink.com 1.10,2013-05-04 16:31:00,
2013-05-04 12:46:00,74.2,44.0,30.46,NW,306,1.0,4.0,34,0.00,,,0.00,weatherlink.com 1.10,2013-05-04 16:46:00,
2013-05-04 13:01:00,74.2,43.0,30.45,ESE,123,2.0,6.0,33,0.00,,,0.00,weatherlink.com 1.10,2013-05-04 17:01:00,
2013-05-04 13:16:00,72.4,45.0,30.45,NNW,331,1.0,7.0,37,0.00,,,0.00,weatherlink.com 1.10,2013-05-04 17:16:00,
2013-05-04 13:31:00,71.2,43.0,30.45,ESE,121,5.0,7.0,37,0.00,,,0.00,weatherlink.com 1.10,2013-05-04 17:31:00,
2013-05-04 13:47:00,70.7,44.0,30.44,South,181,2.0,7.0,39,0.00,,,0.00,weatherlink.com 1.10,2013-05-04 17:47:00,
2013-05-04 14:02:00,73.0,45.0,30.43,SE,127,4.0,6.0,37,0.00,,,0.00,weatherlink.com 1.10,2013-05-04 18:02:00,
2013-05-04 14:17:00,74.0,43.0,30.43,SSW,205,5.0,7.0,33,0.00,,,0.00,weatherlink.com 1.10,2013-05-04 18:17:00,
2013-05-04 14:32:00,76.8,44.0,30.42,SW,219,1.0,5.0,31,0.00,,,0.00,weatherlink.com 1.10,2013-05-04 18:32:00,
2013-05-04 14:47:00,76.6,43.0,30.42,NNW,337,1.0,6.0,30,0.00,,,0.00,weatherlink.com 1.10,2013-05-04 18:47:00,
2013-05-04 15:02:00,77.1,42.0,30.41,NNW,329,2.0,5.0,29,0.00,,,0.00,weatherlink.com 1.10,2013-05-04 19:02:00,
2013-05-04 15:17:00,78.0,37.0,30.41,East,80,1.0,5.0,23,0.00,,,0.00,weatherlink.com 1.10,2013-05-04 19:17:00,
2013-05-04 15:32:00,78.2,42.0,30.40,NNE,20,3.0,7.0,27,0.00,,,0.00,weatherlink.com 1.10,2013-05-04 19:32:00,
2013-05-04 15:47:00,75.2,43.0,30.40,East,88,2.0,10.0,32,0.00,,,0.00,weatherlink.com 1.10,2013-05-04 19:47:00,
2013-05-04 16:02:00,74.0,43.0,30.40,SE,136,2.0,10.0,33,0.00,,,0.00,weatherlink.com 1.10,2013-05-04 20:02:00,
2013-05-04 16:17:00,72.9,43.0,30.40,WSW,251,2.0,7.0,34,0.00,,,0.00,weatherlink.com 1.10,2013-05-04 20:17:00,
2013-05-04 16:32:00,71.8,43.0,30.40,ESE,106,1.0,11.0,36,0.00,,,0.00,weatherlink.com 1.10,2013-05-04 20:32:00,
2013-05-04 16:47:00,71.1,43.0,30.40,SE,146,2.0,12.0,36,0.00,,,0.00,weatherlink.com 1.10,2013-05-04 20:47:00,
2013-05-04 17:02:00,71.0,43.0,30.40,NNE,18,2.0,6.0,37,0.00,,,0.00,weatherlink.com 1.10,2013-05-04 21:02:00,
2013-05-04 17:17:00,70.8,43.0,30.40,ESE,116,8.0,9.0,37,0.00,,,0.00,weatherlink.com 1.10,2013-05-04 21:17:00,
2013-05-04 17:32:00,69.6,43.0,30.40,SE,137,2.0,12.0,39,0.00,,,0.00,weatherlink.com 1.10,2013-05-04 21:32:00,
2013-05-04 17:47:00,68.6,44.0,30.40,ENE,59,4.0,10.0,41,0.00,,,0.00,weatherlink.com 1.10,2013-05-04 21:47:00,
2013-05-04 18:02:00,67.7,44.0,30.40,South,175,3.0,9.0,43,0.00,,,0.00,weatherlink.com 1.10,2013-05-04 22:02:00,
2013-05-04 18:17:00,66.5,45.0,30.40,SE,126,1.0,6.0,46,0.00,,,0.00,weatherlink.com 1.10,2013-05-04 22:17:00,
2013-05-04 18:32:00,65.1,45.0,30.41,ESE,102,4.0,9.0,48,0.00,,,0.00,weatherlink.com 1.10,2013-05-04 22:32:00,
2013-05-04 18:47:00,62.9,45.0,30.41,ENE,60,1.0,8.0,52,0.00,,,0.00,weatherlink.com 1.10,2013-05-04 22:47:00,
2013-05-04 19:02:00,60.9,45.0,30.41,SW,219,3.0,8.0,56,0.00,,,0.00,weatherlink.com 1.10,2013-05-04 23:02:00,
2013-05-04 19:17:00,59.4,45.0,30.42,ESE,105,4.0,9.0,59,0.00,,,0.00,weatherlink.com 1.10,2013-05-04 23:17:00,
2013-05-04 19:32:00,58.5,45.0,30.42,West,262,2.0,7.0,61,0.00,,,0.00,weatherlink.com 1.10,2013-05-04 23:32:00,
2013-05-04 19:47:00,57.5,45.0,30.43,SSW,208,1.0,7.0,63,0.00,,,0.00,weatherlink.com 1.10,2013-05-04 23:47:00,
2013-05-04 20:02:00,56.5,45.0,30.43,ESE,108,4.0,6.0,65,0.00,,,0.00,weatherlink.com 1.10,2013-05-05 00:02:00,
2013-05-04 20:17:00,55.6,45.0,30.44,East,97,1.0,7.0,67,0.00,,,0.00,weatherlink.com 1.10,2013-05-05 00:17:00,
2013-05-04 20:32:00,54.8,45.0,30.44,NNW,328,1.0,6.0,69,0.00,,,0.00,weatherlink.com 1.10,2013-05-05 00:32:00,
2013-05-04 20:47:00,54.1,45.0,30.45,WSW,253,2.0,4.0,71,0.00,,,0.00,weatherlink.com 1.10,2013-05-05 00:47:00,
2013-05-04 21:02:00,53.5,45.0,30.45,WNW,294,3.0,5.0,73,0.00,,,0.00,weatherlink.com 1.10,2013-05-05 01:02:00,
2013-05-04 21:17:00,52.8,45.0,30.46,WSW,257,1.0,5.0,74,0.00,,,0.00,weatherlink.com 1.10,2013-05-05 01:17:00,
2013-05-04 21:32:00,52.3,45.0,30.46,WSW,245,1.0,4.0,75,0.00,,,0.00,weatherlink.com 1.10,2013-05-05 01:32:00,
2013-05-04 21:48:00,51.7,44.0,30.47,NNW,338,3.0,3.0,76,0.00,,,0.00,weatherlink.com 1.10,2013-05-05 01:48:00,
2013-05-04 22:03:00,51.1,44.0,30.47,WSW,237,3.0,7.0,77,0.00,,,0.00,weatherlink.com 1.10,2013-05-05 02:03:00,
2013-05-04 22:18:00,50.4,43.0,30.48,WSW,237,1.0,3.0,77,0.00,,,0.00,weatherlink.com 1.10,2013-05-05 02:18:00,
2013-05-04 22:33:00,49.6,43.0,30.48,NNW,327,1.0,3.0,78,0.00,,,0.00,weatherlink.com 1.10,2013-05-05 02:33:00,
2013-05-04 22:48:00,48.9,43.0,30.48,South,190,0.0,3.0,79,0.00,,,0.00,weatherlink.com 1.10,2013-05-05 02:48:00,
2013-05-04 23:03:00,48.1,43.0,30.48,South,190,0.0,2.0,81,0.00,,,0.00,weatherlink.com 1.10,2013-05-05 03:03:00,
2013-05-04 23:18:00,47.4,42.0,30.48,South,183,0.0,1.0,82,0.00,,,0.00,weatherlink.com 1.10,2013-05-05 03:18:00,
2013-05-04 23:33:00,46.4,42.0,30.48,South,183,0.0,1.0,84,0.00,,,0.00,weatherlink.com 1.10,2013-05-05 03:33:00,
2013-05-04 23:48:00,45.5,42.0,30.48,South,183,0.0,1.0,87,0.00,,,0.00,weatherlink.com 1.10,2013-05-05 03:48:00,